Regional Weather Roundup
Issued by NWS

Home | Current Version | Previous Version | Text Only | Print | Product List | Glossary On
Versions: 1 2 3 4 5 6 7 8 9 10 11 12 13 14 15 16 17 18 19 20 21 22 23 24 25 26 27 28 29 30 31 32 33 34 35 36 37 38 39 40 41 42 43 44 45 46 47 48 49 50
000
ASUS45 KREV 020410
RWRNV
NEVADA REGIONAL WEATHER ROUNDUP
NATIONAL WEATHER SERVICE RENO NV
900 PM PDT WED JUL 01 2015

NOTE: "FAIR" INDICATES FEW OR NO CLOUDS BELOW 12,000 FEET WITH NO
SIGNIFICANT WEATHER AND/OR OBSTRUCTIONS TO VISIBILITY.

NVZ001-003-004-020500-
WESTERN NEVADA

CITY           SKY/WX    TMP DP  RH WIND       PRES   REMARKS
RENO           MOCLDY    88  48  25 NW9G18    30.08R
CARSON CITY    FAIR      81  48  32 E6        30.12R
MINDEN         FAIR      70  50  49 SE8       30.13R
SLIDE MTN        N/A     63  43  48 N6          N/A
PYRAMID LAKE     N/A     84 N/A N/A E13         N/A
FALLON         CLOUDY    89  51  27 W13       29.99R
LOVELOCK       CLOUDY    95  42  16 N32G52    29.97F
HAWTHORNE      MOCLDY    82  50  32 W10       30.10R
$$

NVZ002-CAZ072-073-020500-
NORTHERN AND CENTRAL SIERRA

CITY           SKY/WX    TMP DP  RH WIND       PRES   REMARKS
S. LAKE TAHOE  CLOUDY    71  54  54 CALM      30.26R
TRUCKEE        MOCLDY    72  46  40 CALM      30.25R
SQUAW VLY 8000 NOT AVBL
SUSANVILLE     CLEAR     82  48  30 NW12      30.08S
BLUE CANYON    MOCLDY    75  50  41 NW3       30.23S
MAMMOTH LAKES  CLOUDY    72  46  40 NW7       30.32R
BRIDGEPORT     FAIR      63  49  60 CALM      30.29R
$$

NVZ030-031-036-020500-
NORTHERN NEVADA

CITY           SKY/WX    TMP DP  RH WIND       PRES   REMARKS
ELKO           CLEAR     81  49  32 E3        30.10R
WINNEMUCCA     NOT AVBL
WENDOVER       MOCLDY    90  46  22 NW6       30.02R
$$

NVZ035-037-020500-
CENTRAL NEVADA

CITY           SKY/WX    TMP DP  RH WIND       PRES   REMARKS
ELY            CLOUDY    76  47  35 W17G25    30.24R
EUREKA           N/A     79  46  31 S7        30.21R
$$

NVZ013-014-020500-
SOUTH CENTRAL NEVADA

CITY           SKY/WX    TMP DP  RH WIND       PRES   REMARKS
TONOPAH        CLOUDY    77  53  43 NE24      30.16R
$$

NVZ017-020-022-020500-
SOUTHERN NEVADA

CITY           SKY/WX    TMP DP  RH WIND       PRES   REMARKS
LAS VEGAS      CLOUDY    99  52  20 SW16      29.78F
N. LAS VEGAS   CLOUDY   101  54  20 W7        29.80S
NELLIS AFB     CLOUDY    93  68  44 SW2       29.78F
HENDERSON      CLOUDY    96  55  25 SW16      29.87R
MERCURY        PTCLDY    91  49  23 SW15      29.96R
$$


USA.gov is the U.S. government's official web portal to all federal, state and local government web resources and services.